Location: Aigremont
(47.7188°N, 3.8925°E)
Time: 03:18:10
(UTC+00:00)

COSMO-SKYMED 1 - Pass Details

Date: 18 February 2020
Orbit: 621 x 623 km, 97.9° (Epoch: 29 March)

Event Time Altitude Azimuth Distance (km) Brightness Sun altitude
Rises 04:17:14 0° 147° (SSE) 2,894 6.3 -25.7°
Reaches altitude 10° 04:19:29 10° 141° (SE) 1,993 5.5 -25.3°
Maximum altitude 04:23:35 44° 70° (ENE) 875 3.7 -24.6°
Drops below altitude 10° 04:27:44 10° 359° (N) 2,007 5.2 -23.9°
Sets 04:30:00 0° 353° (N) 2,919 6.0 -23.5°
